{"data":{"norad_id":67094,"epoch":"2026-09-20T15:29:42.245376Z","epoch_age_seconds":65883,"freshness":"FRESH","line1":"1 67094U 25298V   26263.64562784 -.00004014  00000+0 -32875-3 0  9991","line2":"2 67094  69.9992 242.7547 0003625 264.2550  95.8195 14.98329961 42424","mean_motion":14.98329961,"eccentricity":0.0003625,"inclination_deg":69.9992,"raan_deg":242.7547,"arg_perigee_deg":264.255,"mean_anomaly_deg":95.8195,"bstar":-0.00032875,"rev_number":4242,"period_min":96.10700162726,"perigee_km":569.53656658202,"apogee_km":574.57545651539,"semimajor_km":6950.1930115487,"source":"CELESTRAK","updated_at":"2026-09-21T09:00:36.101525Z"}}